Location: Pitton
(51.0667°N, 1.7000°W)
Time: 23:54:29
(UTC+00:00)

CZ-4C R/B - Pass Details

Date: 17 September 2019
Orbit: 654 x 1348 km, 63.4° (Epoch: 14 October)

Event Time Altitude Azimuth Distance (km) Brightness Sun altitude
Rises 21:47:59 0° 305° (NW) 3,551 6.5 -29.8°
Reaches altitude 10° 21:50:37 10° 315° (NW) 2,714 5.7 -30.0°
Maximum altitude 21:56:28 34° 20° (NNE) 1,709 3.9 -30.6°
Enters shadow 21:59:36 25° 62° (ENE) 2,150 4.2 -30.9°
